Regional Weather Roundup
Issued by NWS

Home | Current Version | Previous Version | Graphics & Text | Print | Product List | Glossary On
Versions: 1 2 3 4 5 6 7 8 9 10 11 12 13 14 15 16 17 18 19 20 21 22 23 24 25 26 27 28 29 30 31 32 33 34 35 36 37 38 39 40 41 42 43 44 45 46 47 48 49 50
000
ASUS44 KMEG 091500
RWRTN
TENNESSEE HOURLY STATE WEATHER ROUNDUP
NATIONAL WEATHER SERVICE MEMPHIS TN
900 AM CST TUE FEB 09 2016

TNZ002-004-019-021-049-052-054-088>092-091600-
WEST TENNESSEE

CITY           SKY/WX    TMP DP  RH WIND       PRES   REMARKS
MEMPHIS INTL   MOSUNNY   35  14  42 NW18G24   30.00R WCI  24
NWS MEMPHIS      N/A     32 N/A N/A MISG        N/A
JACKSON        LGT SNOW  26  20  77 N7        29.98R WCI  18
DYERSBURG      CLOUDY    27  21  80 N3        30.00R
UNION CITY     CLOUDY    21  18  86 NW6       29.96S WCI  14
PARIS          CLOUDY    19  14  79 NW9       29.95R WCI   9
$$

TNZ008-025-027-028-033-062-065-066-091600-
NORTH MIDDLE TENNESSEE

CITY           SKY/WX    TMP DP  RH WIND       PRES   REMARKS
NASHVILLE      SNOW      25  19  78 N9        29.91R VSB 1/2 WCI  15
CLARKSVILLE    LGT SNOW  23  19  85 NW10      29.91R VSB 1   WCI  12
COOKEVILLE     CLOUDY    25  19  80 NW5       29.85R WCI  19
CROSSVILLE     LGT SNOW  20  15  81 W8        29.79R WCI  10
$$

TNZ061-075-076-078-094-096-097-091600-
SOUTH MIDDLE TENNESSEE

CITY           SKY/WX    TMP DP  RH WIND       PRES   REMARKS
TULLAHOMA      CLOUDY    25  25 100 NW6       29.87R WCI  18
WINCHESTER     CLOUDY    25  25 100 VRB5      29.88R VSB 3/4 WCI  19
MCMINNVILLE    CLOUDY    23  19  86 N6        29.86R WCI  16
COLUMBIA       CLOUDY    27  27 100 NW5       29.89R VSB 3/4 WCI  21
SHELBYVILLE    CLOUDY    27  23  86 NW9       29.90S WCI  17
$$

TNZ017-018-042-046-047-091600-
NORTHEAST TENNESSEE

CITY           SKY/WX    TMP DP  RH WIND       PRES   REMARKS
TRI CITIES     CLOUDY    23  15  71 W10       29.75R WCI  12
$$

TNZ012-013-036-069-073-074-091600-
CENTRAL EAST TENNESSEE

CITY           SKY/WX    TMP DP  RH WIND       PRES   REMARKS
KNOXVILLE      CLOUDY    26  15  63 SW10      29.84R WCI  16
OAK RIDGE      CLOUDY    26  17  68 W6        29.86R WCI  19
GATLINBURG     CLOUDY    27  12  54 W10       29.82R WCI  17
$$

TNZ083-085-099-091600-
SOUTHEAST TENNESSEE

CITY           SKY/WX    TMP DP  RH WIND       PRES   REMARKS
CHATTANOOGA    LGT SNOW  28  23  81 CALM      29.88R FOG
$$

SKY/WX REPORTED AS FAIR MEANS FEW OR NO CLOUDS BELOW
12 THOUSAND FEET.




USA.gov is the U.S. government's official web portal to all federal, state and local government web resources and services.